Showing default

SKYSAT 2, 40072

Orbit data source: Space-Track

SKYSAT 2, 40072 is a payload satellite owned by Skybox (US) in SSO that was launched on Tue, 08 Jul 2014 UTC via a SOYUZ-2-1B launch vehicle from the Tyuratam Missile And Space Complex (TTMTR). Payload-class satellites include a variety of spacecraft equipped with specific instruments for various scientific and technological missions. These include communications satellites like Starlink; space stations such as the ISS; scientific satellites like the Hubble; Earth observation satellites from companies like Planet Labs, Umbra, and HawkEye 360; GPS; miniature CubeSats for education and research; and military/defense satellites.

Loading next visibility...
Identifier
40072, 2014-037D
Orbit
SSO
Country
Flag of USUS
Related business
Manufacturer
Skybox
Mission
Operational Commercial Imaging
Bus & Motor
SKYSAT, Unknown motor
Mass
82 kg wet, 82 kg dry
Launch date (UTC)
2014-07-08 (11 years ago)
Launch vehicle
SOYUZ-2-1B
Launch site
Tyuratam Missile And Space Complex (TTMTR)
Object type
Payload
Rocket body
Debris
Shape & HBR
Box, 1.0 m
Radar Cross Section
0.800 m², Medium (>0.1 m² and < 1m²)

Expand to show TLE details & history
Last TLE update: 1 day ago

TLE from 1 day ago
0 SKYSAT 2
1 40072U 14037D   25301.40646250  .00002762  00000-0  31456-3 0  9995
2 40072  98.3530 242.7470 0004779 323.7365  36.3525 14.87065667611502
Epoch: 2025-10-28T09:45Z
TLE epoch observation values (Epoch: 2025-10-28T09:45:18.359Z)
Latitude
-0.00005°
Longitude
59.4261°
Altitude
607.438 km
Speed
7.557 km/s
True Right ascension
16h 10m 59s
True Declination
0° 00' 00"
Sunlit
Object was in daylight at epoch
Visualization orbit readout
Latitude
Unknown
Longitude
Unknown
Altitude
Unknown
Speed
Unknown
Apparent Right ascension
Unknown
Apparent Declination
Unknown
Sunlit
N/A
Visualization observer readout
Local Sidereal Time
05:28:14
Azimuth
Unknown
Elevation
Unknown
Doppler factor
Unknown
Orbital elements
Apogee altitude
607.499 km
Perigee altitude
600.825 km
Semi-major axis
6,982.299 km
Eccentricity
0.00048
Inclination
98.353°
RAAN
242.747°
Arg. of periapsis
323.7365°
True anomaly
36.38498°
Mean anomaly
36.3525°
Eccentric anomaly
36.36874°
Mean motion
3.72002 °/min
Orbital period
96.77 mins
BSTAR
0.00031456
Loading maneuver chart data...
Computing Atmospheric mass density...
Loading historical data...
Loading historical data...
Loading historical data...
Loading historical data...
Loading historical data...
Loading historical data...
Loading historical data...

Documentation

Showing up to 5 results
|